timestamp,surface_pressure_avg,surface_temp_avg,battery_voltage,lat,long
2018-05-20 00:00:00+00:00,266.3481,6.42,13.21,47.84626,-54.09684
2018-05-20 00:10:00+00:00,273.5948,6.43,13.13,47.84626,-54.09684
2018-05-20 00:20:00+00:00,281.8981,6.42,13.21,47.84626,-54.09684
2018-05-20 00:30:00+00:00,290.3664,6.41,13.13,47.84626,-54.09684
2018-05-20 00:40:00+00:00,295.348,6.4,13.21,47.84626,-54.09684
2018-05-20 00:50:00+00:00,303.4414,6.4,13.21,47.84626,-54.09684
2018-05-20 01:00:00+00:00,313.6247,6.42,13.13,47.84626,-54.09684
2018-05-20 01:10:00+00:00,324.3396,6.45,13.05,47.84626,-54.09684
2018-05-20 01:20:00+00:00,330.2463,6.47,13.05,47.84626,-54.09684
2018-05-20 01:30:00+00:00,335.2396,6.47,13.05,47.84626,-54.09684
2018-05-20 01:40:00+00:00,340.3696,6.48,13.13,47.84626,-54.09684
2018-05-20 01:50:00+00:00,345.8746,6.46,13.13,47.84626,-54.09684
2018-05-20 02:00:00+00:00,347.1979,6.44,13.05,47.84626,-54.09684
2018-05-20 02:10:00+00:00,350.6696,6.42,12.97,47.84626,-54.09684
2018-05-20 02:20:00+00:00,355.8829,6.42,13.05,47.84626,-54.09684
2018-05-20 02:30:00+00:00,359.1279,6.42,13.05,47.84626,-54.09684
2018-05-20 02:40:00+00:00,359.0646,6.41,13.05,47.84626,-54.09684
2018-05-20 02:50:00+00:00,358.6547,6.43,13.05,47.84626,-54.09684
2018-05-20 03:00:00+00:00,364.6296,6.4,13.05,47.84626,-54.09684
2018-05-20 03:10:00+00:00,364.0797,6.41,12.97,47.84626,-54.09684
2018-05-20 03:20:00+00:00,358.7596,6.42,12.97,47.84626,-54.09684
2018-05-20 03:30:00+00:00,358.5062,6.42,13.05,47.84626,-54.09684
2018-05-20 03:40:00+00:00,359.2746,6.44,13.05,47.84626,-54.09684
2018-05-20 03:50:00+00:00,356.6263,6.4,13.05,47.84626,-54.09684
2018-05-20 04:00:00+00:00,352.783,6.4,12.97,47.84626,-54.09684
2018-05-20 04:10:00+00:00,353.188,6.42,12.89,47.84626,-54.09684
2018-05-20 04:20:00+00:00,352.9379,6.42,12.97,47.84626,-54.09684
2018-05-20 04:30:00+00:00,346.2813,6.46,12.97,47.84626,-54.09684
2018-05-20 04:40:00+00:00,341.1646,6.55,12.97,47.84626,-54.09684
2018-05-20 04:50:00+00:00,339.5563,6.58,13.05,47.84626,-54.09684
2018-05-20 05:00:00+00:00,333.6028,6.58,12.97,47.84626,-54.09684
2018-05-20 05:10:00+00:00,325.5447,6.63,12.89,47.84626,-54.09684
2018-05-20 05:20:00+00:00,319.5647,6.6,12.97,47.84626,-54.09684
2018-05-20 05:30:00+00:00,315.048,6.5,12.97,47.84626,-54.09684
2018-05-20 05:40:00+00:00,303.4464,6.6,12.97,47.84626,-54.09684
2018-05-20 05:50:00+00:00,294.7814,6.6,12.97,47.84626,-54.09684
2018-05-20 06:00:00+00:00,285.3097,6.5,12.97,47.84626,-54.09684
2018-05-20 06:10:00+00:00,273.303,6.5,12.89,47.84626,-54.09684
2018-05-20 06:20:00+00:00,262.6097,6.5,12.97,47.84626,-54.09684
2018-05-20 06:30:00+00:00,254.6015,6.5,12.97,47.84626,-54.09684
2018-05-20 06:40:00+00:00,242.8698,6.56,12.97,47.84626,-54.09684
2018-05-20 06:50:00+00:00,234.2381,6.6,12.97,47.84626,-54.09684
2018-05-20 07:00:00+00:00,227.9114,6.6,12.89,47.84626,-54.09684
2018-05-20 07:10:00+00:00,218.9648,6.6,12.89,47.84626,-54.09684
2018-05-20 07:20:00+00:00,208.9664,6.6,12.89,47.84626,-54.09684
2018-05-20 07:30:00+00:00,201.6998,6.6,12.97,47.84626,-54.09684
2018-05-20 07:40:00+00:00,198.3448,6.6,12.97,47.84626,-54.09684
2018-05-20 07:50:00+00:00,194.6798,6.6,12.97,47.84626,-54.09684
2018-05-20 08:00:00+00:00,184.7232,6.6,12.89,47.84626,-54.09684
2018-05-20 08:10:00+00:00,178.3315,6.6,12.81,47.84626,-54.09684
2018-05-20 08:20:00+00:00,180.2681,6.6,12.89,47.84626,-54.09684
2018-05-20 08:30:00+00:00,181.0965,6.6,12.89,47.84626,-54.09684
2018-05-20 08:40:00+00:00,176.0215,6.6,12.97,47.84626,-54.09684
2018-05-20 08:50:00+00:00,174.7215,6.6,12.97,47.84626,-54.09684
2018-05-20 09:00:00+00:00,182.9865,6.6,12.97,47.84626,-54.09684
2018-05-20 09:10:00+00:00,184.4265,6.6,12.97,47.84626,-54.09684
2018-05-20 09:20:00+00:00,181.5031,6.6,13.05,47.84626,-54.09684
2018-05-20 09:30:00+00:00,187.1131,6.6,13.13,47.84626,-54.09684
2018-05-20 09:40:00+00:00,193.6648,6.6,13.21,47.84626,-54.09684
2018-05-20 09:50:00+00:00,194.1515,6.6,13.29,47.84626,-54.09684
2018-05-20 10:00:00+00:00,195.3964,6.6,13.44,47.84626,-54.09684
2018-05-20 10:10:00+00:00,198.5898,6.6,13.68,47.84626,-54.09684
2018-05-20 10:20:00+00:00,199.4665,6.58,14.16,47.84626,-54.09684
2018-05-20 10:30:00+00:00,199.9081,6.56,15.2,47.84626,-54.09684
2018-05-20 10:40:00+00:00,201.3331,6.5,15.91,47.84626,-54.09684
2018-05-20 10:50:00+00:00,205.3698,6.4,16.15,47.84626,-54.09684
2018-05-20 11:00:00+00:00,206.0997,6.4,14.56,47.84626,-54.09684
2018-05-20 11:10:00+00:00,206.2298,6.4,14.4,47.84626,-54.09684
2018-05-20 11:20:00+00:00,212.3248,6.4,14.48,47.84626,-54.09684
2018-05-20 11:30:00+00:00,216.1131,6.44,14.48,47.84626,-54.09684
2018-05-20 11:40:00+00:00,217.7298,6.49,14.48,47.84626,-54.09684
2018-05-20 11:50:00+00:00,218.9698,6.5,14.32,47.84626,-54.09684
2018-05-20 12:00:00+00:00,223.5281,6.5,14.32,47.84626,-54.09684
2018-05-20 12:10:00+00:00,228.433,6.54,14.4,47.84626,-54.09684
2018-05-20 12:20:00+00:00,231.3631,6.59,14.56,47.84626,-54.09684
2018-05-20 12:30:00+00:00,236.6564,6.6,14.4,47.84626,-54.09684
2018-05-20 12:40:00+00:00,245.3281,6.6,14.32,47.84626,-54.09684
2018-05-20 12:50:00+00:00,251.7948,6.63,14.32,47.84626,-54.09684
2018-05-20 13:00:00+00:00,261.0515,6.6,14.16,47.84626,-54.09684
2018-05-20 13:10:00+00:00,269.9381,6.44,14.08,47.84626,-54.09684
2018-05-20 13:20:00+00:00,282.088,6.46,14.16,47.84626,-54.09684
2018-05-20 13:30:00+00:00,290.9314,6.4,14.16,47.84626,-54.09684
2018-05-20 13:40:00+00:00,301.0447,6.4,14.24,47.84626,-54.09684
2018-05-20 13:50:00+00:00,311.1497,6.44,14.24,47.84626,-54.09684
2018-05-20 14:00:00+00:00,313.8663,6.45,14.16,47.84626,-54.09684
2018-05-20 14:10:00+00:00,315.668,6.49,14.08,47.84626,-54.09684
2018-05-20 14:20:00+00:00,318.608,6.4,14.24,47.84626,-54.09684
2018-05-20 14:30:00+00:00,324.328,6.2,14.24,47.84626,-54.09684
2018-05-20 14:40:00+00:00,326.143,6.12,14.24,47.84626,-54.09684
2018-05-20 14:50:00+00:00,331.8063,6.19,14.32,47.84626,-54.09684
2018-05-20 15:00:00+00:00,331.8979,6.15,14.16,47.84626,-54.09684
2018-05-20 15:10:00+00:00,330.2896,6.2,14.08,47.84626,-54.09684
2018-05-20 15:20:00+00:00,333.9697,6.3,14.24,47.84626,-54.09684
2018-05-20 15:30:00+00:00,334.4464,6.39,14.24,47.84626,-54.09684
2018-05-20 15:40:00+00:00,332.3513,6.5,14.16,47.84626,-54.09684
2018-05-20 15:50:00+00:00,331.5179,6.5,14.16,47.84626,-54.09684
2018-05-20 16:00:00+00:00,336.6147,6.5,14.08,47.84626,-54.09684
2018-05-20 16:10:00+00:00,335.8279,6.5,13.92,47.84626,-54.09684
2018-05-20 16:20:00+00:00,334.8547,6.6,13.92,47.84626,-54.09684
2018-05-20 16:30:00+00:00,340.1846,6.6,13.84,47.84626,-54.09684
2018-05-20 16:40:00+00:00,340.1296,6.59,13.84,47.84626,-54.09684
2018-05-20 16:50:00+00:00,332.733,6.58,13.84,47.84626,-54.09684
2018-05-20 17:00:00+00:00,334.028,6.4,13.76,47.84626,-54.09684
2018-05-20 17:10:00+00:00,340.5213,6.3,13.68,47.84626,-54.09684
2018-05-20 17:20:00+00:00,336.6613,6.37,13.68,47.84626,-54.09684
2018-05-20 17:30:00+00:00,325.8846,6.47,13.68,47.84626,-54.09684
2018-05-20 17:40:00+00:00,327.0079,6.4,13.68,47.84626,-54.09684
2018-05-20 17:50:00+00:00,325.4246,6.4,13.68,47.84626,-54.09684
2018-05-20 18:00:00+00:00,317.173,6.46,13.6,47.84626,-54.09684
2018-05-20 18:10:00+00:00,303.7764,6.5,13.53,47.84626,-54.09684
2018-05-20 18:20:00+00:00,298.723,6.5,13.53,47.84626,-54.09684
2018-05-20 18:30:00+00:00,291.2263,6.5,13.53,47.84626,-54.09684
2018-05-20 18:40:00+00:00,279.423,6.49,13.53,47.84626,-54.09684
2018-05-20 18:50:00+00:00,268.9264,6.5,13.6,47.84626,-54.09684
2018-05-20 19:00:00+00:00,264.1464,6.5,13.53,47.84626,-54.09684
2018-05-20 19:10:00+00:00,254.7481,6.5,13.44,47.84626,-54.09684
2018-05-20 19:20:00+00:00,242.0181,6.5,13.44,47.84626,-54.09684
2018-05-20 19:30:00+00:00,235.3364,6.5,13.53,47.84626,-54.09684
2018-05-20 19:40:00+00:00,231.4715,6.5,13.6,47.84626,-54.09684
2018-05-20 19:50:00+00:00,222.5131,6.51,13.68,47.84626,-54.09684
2018-05-20 20:00:00+00:00,212.0831,6.58,13.68,47.84626,-54.09684
2018-05-20 20:10:00+00:00,210.8381,6.6,13.6,47.84626,-54.09684
2018-05-20 20:20:00+00:00,210.1681,6.6,13.68,47.84626,-54.09684
2018-05-20 20:30:00+00:00,206.3631,6.6,13.68,47.84626,-54.09684
2018-05-20 20:40:00+00:00,204.1614,6.6,13.68,47.84626,-54.09684
2018-05-20 20:50:00+00:00,205.3331,6.6,13.68,47.84626,-54.09684
2018-05-20 21:00:00+00:00,206.1798,6.6,13.6,47.84626,-54.09684
2018-05-20 21:10:00+00:00,206.3531,6.66,13.44,47.84626,-54.09684
2018-05-20 21:20:00+00:00,205.4114,6.65,13.44,47.84626,-54.09684
2018-05-20 21:30:00+00:00,209.2498,6.67,13.37,47.84626,-54.09684
2018-05-20 21:40:00+00:00,214.5081,6.66,13.37,47.84626,-54.09684
2018-05-20 21:50:00+00:00,214.2814,6.68,13.37,47.84626,-54.09684
2018-05-20 22:00:00+00:00,208.5865,6.69,13.29,47.84626,-54.09684
2018-05-20 22:10:00+00:00,208.8065,6.7,13.21,47.84626,-54.09684
2018-05-20 22:20:00+00:00,217.2264,6.7,13.21,47.84626,-54.09684
2018-05-20 22:30:00+00:00,220.5214,6.7,13.21,47.84626,-54.09684
2018-05-20 22:40:00+00:00,220.6381,6.7,13.21,47.84626,-54.09684
2018-05-20 22:50:00+00:00,226.8331,6.71,13.21,47.84626,-54.09684
2018-05-20 23:00:00+00:00,236.7997,6.76,13.13,47.84626,-54.09684
2018-05-20 23:10:00+00:00,232.2564,6.8,13.05,47.84626,-54.09684
2018-05-20 23:20:00+00:00,229.8748,6.8,13.05,47.84626,-54.09684
2018-05-20 23:30:00+00:00,236.7781,6.8,13.05,47.84626,-54.09684
2018-05-20 23:40:00+00:00,241.9381,6.8,13.05,47.84626,-54.09684
2018-05-20 23:50:00+00:00,237.1281,6.8,13.13,47.84626,-54.09684
